When you browse on this site, cookies collect data to enhance your experience and personalize the content and advertising you see.
Visit our Privacy Policy to learn more. By continuing to use the site, you agree to this use of cookies and data.
  • In Lithuania
  • List of Countries
  • For 7 days
  • Water Temperature
  • Satellite Maps
  • Weather Map
  • Weather Widgets
  • user-avatar
    Login

    Hourly Weather Szprotawa

    Today, 22 July, Monday

    Time Temperature Precipitation Wind Pressure Humidity
    00:00 +19°C° 0 mm 1 mps 755 mmHg 81%
    01:00 +18°C° 0 mm 1 mps 755 mmHg 84%
    02:00 +18°C° 0 mm 1 mps 755 mmHg 86%
    03:00 +18°C° 0 mm 1 mps 755 mmHg 87%
    04:00 +16°C° 0 mm 1 mps 755 mmHg 89%
    05:00 +19°C° 0 mm 1 mps 755 mmHg 84%
    06:00 +20°C° 0 mm 1 mps 755 mmHg 80%
    07:00 +21°C° 0 mm 1 mps 756 mmHg 75%
    08:00 +22°C° 0.1 mm 1 mps 756 mmHg 69%
    09:00 +24°C° 0.1 mm 2 mps 756 mmHg 62%
    10:00 +26°C° 0.1 mm 2 mps 756 mmHg 55%
    11:00 +26°C° 0 mm 2 mps 756 mmHg 53%
    12:00 +26°C° 0 mm 3 mps 756 mmHg 51%
    13:00 +27°C° 0 mm 3 mps 755 mmHg 49%
    14:00 +27°C° 0 mm 3 mps 755 mmHg 49%
    15:00 +27°C° 0 mm 3 mps 755 mmHg 49%
    16:00 +27°C° 0 mm 4 mps 755 mmHg 49%
    17:00 +26°C° 0 mm 3 mps 755 mmHg 54%
    18:00 +24°C° 0 mm 3 mps 755 mmHg 59%
    19:00 +22°C° 0 mm 3 mps 755 mmHg 64%
    20:00 +21°C° 0 mm 2 mps 755 mmHg 66%
    21:00 +22°C° 0 mm 1 mps 755 mmHg 68%
    22:00 +21°C° 0 mm 1 mps 756 mmHg 70%
    23:00 +21°C° 0 mm 1 mps 755 mmHg 71%

    Tomorrow, 23 July, Tuesday

    Time Temperature Precipitation Wind Pressure Humidity
    00:00 +20°C° 0 mm 1 mps 755 mmHg 72%
    01:00 +18°C° 0 mm 0 mps 755 mmHg 72%
    02:00 +20°C° 0 mm 1 mps 755 mmHg 75%
    03:00 +19°C° 0 mm 1 mps 755 mmHg 77%
    04:00 +19°C° 0 mm 1 mps 755 mmHg 79%
    05:00 +19°C° 0 mm 2 mps 755 mmHg 76%
    06:00 +20°C° 0 mm 2 mps 755 mmHg 73%
    07:00 +21°C° 0 mm 3 mps 755 mmHg 70%
    08:00 +22°C° 0 mm 3 mps 755 mmHg 66%
    09:00 +25°C° 0 mm 3 mps 755 mmHg 63%
    10:00 +26°C° 0 mm 3 mps 755 mmHg 59%
    11:00 +27°C° 0 mm 3 mps 755 mmHg 55%
    12:00 +28°C° 0 mm 3 mps 754 mmHg 50%
    13:00 +29°C° 0 mm 4 mps 754 mmHg 46%
    14:00 +30°C° 0 mm 3 mps 754 mmHg 46%
    15:00 +30°C° 0 mm 3 mps 754 mmHg 45%
    16:00 +30°C° 0 mm 3 mps 754 mmHg 45%
    17:00 +29°C° 0 mm 3 mps 754 mmHg 50%
    18:00 +28°C° 0 mm 2 mps 753 mmHg 56%
    19:00 +26°C° 0 mm 1 mps 753 mmHg 61%
    20:00 +25°C° 0 mm 1 mps 753 mmHg 66%
    21:00 +23°C° 0 mm 1 mps 754 mmHg 71%
    22:00 +22°C° 0 mm 1 mps 754 mmHg 76%
    23:00 +21°C° 0 mm 1 mps 754 mmHg 79%

    Day after tomorrow, 24 July, Wednesday

    Time Temperature Precipitation Wind Pressure Humidity
    00:00 +19°C° 0 mm 0 mps 754 mmHg 82%
    01:00 +18°C° 0 mm 0 mps 753 mmHg 85%
    02:00 +18°C° 0 mm 0 mps 753 mmHg 86%
    03:00 +17°C° 0 mm 0 mps 753 mmHg 88%
    04:00 +17°C° 0 mm 0 mps 753 mmHg 90%
    05:00 +19°C° 0 mm 0 mps 753 mmHg 84%
    06:00 +20°C° 0 mm 0 mps 753 mmHg 77%
    07:00 +22°C° 0 mm 0 mps 753 mmHg 71%
    08:00 +26°C° 0 mm 1 mps 753 mmHg 64%
    09:00 +27°C° 0 mm 1 mps 753 mmHg 57%
    10:00 +29°C° 0 mm 1 mps 753 mmHg 50%
    11:00 +30°C° 0 mm 1 mps 753 mmHg 46%
    12:00 +31°C° 0 mm 2 mps 753 mmHg 42%
    13:00 +32°C° 0 mm 2 mps 753 mmHg 39%
    14:00 +32°C° 0 mm 2 mps 753 mmHg 38%
    15:00 +32°C° 0 mm 2 mps 753 mmHg 38%
    16:00 +32°C° 0 mm 2 mps 752 mmHg 38%
    17:00 +31°C° 0 mm 2 mps 752 mmHg 44%
    18:00 +29°C° 0 mm 2 mps 752 mmHg 49%
    19:00 +28°C° 0 mm 1 mps 752 mmHg 55%
    20:00 +26°C° 0 mm 2 mps 752 mmHg 59%
    21:00 +25°C° 0 mm 2 mps 753 mmHg 63%
    22:00 +24°C° 0 mm 2 mps 753 mmHg 67%
    23:00 +23°C° 0 mm 2 mps 753 mmHg 70%

    25 July, Thursday

    Time Temperature Precipitation Wind Pressure Humidity
    00:00 +22°C° 0 mm 1 mps 753 mmHg 73%
    01:00 +22°C° 0 mm 1 mps 753 mmHg 76%
    02:00 +22°C° 0 mm 1 mps 753 mmHg 77%
    03:00 +21°C° 0 mm 1 mps 753 mmHg 78%
    04:00 +21°C° 0 mm 1 mps 753 mmHg 79%
    05:00 +23°C° 0 mm 1 mps 753 mmHg 73%
    06:00 +24°C° 0 mm 1 mps 753 mmHg 68%
    07:00 +26°C° 0 mm 1 mps 753 mmHg 63%
    08:00 +27°C° 0 mm 2 mps 753 mmHg 57%
    09:00 +29°C° 0 mm 2 mps 753 mmHg 52%
    10:00 +30°C° 0 mm 2 mps 754 mmHg 47%
    11:00 +31°C° 0 mm 2 mps 753 mmHg 44%
    12:00 +32°C° 0 mm 2 mps 753 mmHg 41%
    13:00 +34°C° 0 mm 2 mps 753 mmHg 37%
    14:00 +34°C° 0 mm 2 mps 752 mmHg 38%
    15:00 +34°C° 0 mm 3 mps 752 mmHg 38%
    16:00 +34°C° 0 mm 3 mps 752 mmHg 39%
    17:00 +31°C° 0 mm 3 mps 752 mmHg 45%
    18:00 +30°C° 0 mm 3 mps 752 mmHg 51%
    19:00 +28°C° 0 mm 3 mps 752 mmHg 57%
    20:00 +27°C° 0 mm 3 mps 752 mmHg 61%
    21:00 +25°C° 0 mm 2 mps 752 mmHg 66%
    22:00 +24°C° 0 mm 2 mps 752 mmHg 70%
    23:00 +23°C° 0 mm 2 mps 752 mmHg 71%

    26 July, Friday

    Time Temperature Precipitation Wind Pressure Humidity
    00:00 +21°C° 0 mm 2 mps 752 mmHg 72%
    01:00 +21°C° 0 mm 2 mps 752 mmHg 74%
    02:00 +20°C° 0 mm 2 mps 752 mmHg 76%
    03:00 +20°C° 0 mm 2 mps 751 mmHg 78%
    04:00 +19°C° 0 mm 3 mps 751 mmHg 81%
    05:00 +21°C° 0 mm 3 mps 751 mmHg 75%
    06:00 +22°C° 0 mm 4 mps 751 mmHg 70%
    07:00 +23°C° 0 mm 5 mps 751 mmHg 64%
    08:00 +26°C° 0 mm 5 mps 751 mmHg 58%
    09:00 +28°C° 0 mm 6 mps 751 mmHg 53%
    10:00 +29°C° 0 mm 6 mps 751 mmHg 47%
    11:00 +30°C° 0 mm 6 mps 750 mmHg 45%
    12:00 +32°C° 0 mm 5 mps 750 mmHg 43%
    13:00 +33°C° 0 mm 5 mps 750 mmHg 40%
    14:00 +33°C° 0 mm 5 mps 749 mmHg 41%
    15:00 +34°C° 0 mm 5 mps 749 mmHg 41%
    16:00 +34°C° 0 mm 5 mps 748 mmHg 41%
    17:00 +32°C° 0 mm 4 mps 748 mmHg 45%
    18:00 +30°C° 0 mm 4 mps 748 mmHg 48%
    19:00 +29°C° 0 mm 3 mps 748 mmHg 52%
    20:00 +28°C° 0 mm 3 mps 748 mmHg 56%
    21:00 +26°C° 0 mm 4 mps 748 mmHg 60%
    22:00 +25°C° 0 mm 4 mps 748 mmHg 63%
    23:00 +23°C° 0 mm 4 mps 748 mmHg 66%

    27 July, Saturday

    Time Temperature Precipitation Wind Pressure Humidity
    00:00 +23°C° 0 mm 4 mps 748 mmHg 69%
    01:00 +23°C° 0 mm 4 mps 748 mmHg 72%
    02:00 +22°C° 0 mm 3 mps 747 mmHg 75%
    03:00 +21°C° 0 mm 3 mps 747 mmHg 78%
    04:00 +21°C° 0 mm 3 mps 747 mmHg 81%
    05:00 +22°C° 0 mm 3 mps 747 mmHg 76%
    06:00 +24°C° 0 mm 3 mps 747 mmHg 71%
    07:00 +25°C° 0 mm 3 mps 746 mmHg 67%
    08:00 +27°C° 0 mm 3 mps 747 mmHg 59%
    09:00 +29°C° 0 mm 3 mps 747 mmHg 51%
    10:00 +32°C° 0 mm 4 mps 747 mmHg 43%
    11:00 +33°C° 0 mm 4 mps 746 mmHg 42%
    12:00 +33°C° 0 mm 4 mps 746 mmHg 42%
    13:00 +33°C° 0 mm 4 mps 745 mmHg 41%
    14:00 +33°C° 0 mm 4 mps 745 mmHg 42%
    15:00 +33°C° 0 mm 4 mps 745 mmHg 43%
    16:00 +33°C° 0 mm 4 mps 744 mmHg 44%
    17:00 +29°C° 0.5 mm 4 mps 744 mmHg 55%
    18:00 +27°C° 0.5 mm 3 mps 744 mmHg 67%
    19:00 +24°C° 0.5 mm 2 mps 744 mmHg 78%
    20:00 +22°C° 0.9 mm 3 mps 745 mmHg 84%
    21:00 +21°C° 0.9 mm 3 mps 745 mmHg 89%
    22:00 +20°C° 0.9 mm 3 mps 746 mmHg 94%
    23:00 +20°C° 0.6 mm 4 mps 746 mmHg 94%
    Show more